| time (UTC) | temp C | wind direction | speed KPH | gust KPH | rain 1hr cm | rain 24hr cm | rain mn cm | humidity % | barometer mb |
| 20260506101501 | 7 | 99 | 4.8 | 16.1 | 0.00 | 0.00 | 0.00 | 69 | 1010.9 |
| 20260506100100 | 7 | 77 | 1.6 | 8.0 | 0.00 | 0.00 | 0.00 | 69 | 1010.7 |
| 20260506094559 | 7 | 360 | 4.8 | 12.9 | 0.00 | 0.00 | 0.00 | 68 | 1010.6 |
| 20260506093058 | 7 | 86 | 1.6 | 6.4 | 0.00 | 0.00 | 0.00 | 68 | 1010.7 |
| 20260506091601 | 7 | 32 | 1.6 | 12.9 | 0.00 | 0.00 | 0.00 | 68 | 1010.4 |
| 20260506084602 | 7 | 254 | 0.0 | 17.7 | 0.00 | 0.00 | 0.00 | 68 | 1009.6 |
| 20260506083055 | 7 | 50 | 4.8 | 14.5 | 0.00 | 0.00 | 0.00 | 67 | 1009.2 |
| 20260506081554 | 8 | 74 | 3.2 | 8.0 | 0.00 | 0.00 | 0.00 | 66 | 1010.7 |
| 20260506073047 | 8 | 74 | 0.0 | 12.9 | 0.00 | 0.00 | 0.00 | 62 | 1010.0 |
| 20260506071546 | 8 | 69 | 0.0 | 12.9 | 0.00 | 0.00 | 0.00 | 61 | 1009.5 |
| 20260506061544 | 8 | 102 | 3.2 | 16.1 | 0.00 | 0.00 | 0.00 | 62 | 1009.5 |
| 20260506044525 | 8 | 65 | 6.4 | 27.4 | 0.00 | 0.00 | 0.00 | 70 | 1008.0 |
| 20260506043021 | 8 | 88 | 6.4 | 19.3 | 0.00 | 0.00 | 0.00 | 69 | 1007.4 |
| 20260506041518 | 8 | 70 | 9.7 | 22.5 | 0.00 | 0.00 | 0.00 | 69 | 1007.4 |
| 20260506040021 | 9 | 80 | 4.8 | 19.3 | 0.00 | 0.00 | 0.00 | 68 | 1007.2 |
| 20260506034520 | 9 | 94 | 4.8 | 20.9 | 0.00 | 0.00 | 0.00 | 67 | 1007.1 |
| 20260506033010 | 9 | 82 | 3.2 | 16.1 | 0.00 | 0.00 | 0.00 | 66 | 1007.0 |
| 20260506031506 | 9 | 100 | 6.4 | 17.7 | 0.00 | 0.00 | 0.00 | 66 | 1006.6 |
| 20260506030015 | 10 | 61 | 3.2 | 9.7 | 0.00 | 0.00 | 0.00 | 65 | 1006.2 |
| 20260506024508 | 10 | 360 | 3.2 | 12.9 | 0.00 | 0.00 | 0.00 | 65 | 1006.2 |
| 20260506023000 | 10 | 267 | 1.6 | 14.5 | 0.00 | 0.00 | 0.00 | 64 | 1006.2 |
| 20260506021559 | 10 | 355 | 1.6 | 8.0 | 0.00 | 0.00 | 0.00 | 63 | 1005.9 |
| 20260506020058 | 10 | 44 | 1.6 | 6.4 | 0.00 | 0.00 | 0.00 | 63 | 1005.6 |
| 20260506014555 | 10 | 17 | 3.2 | 9.7 | 0.00 | 0.00 | 0.00 | 62 | 1005.1 |
| 20260506013107 | 10 | 63 | 3.2 | 9.7 | 0.00 | 0.00 | 0.00 | 61 | 1005.1 |
| 20260506011604 | 11 | 15 | 1.6 | 9.7 | 0.00 | 0.00 | 0.00 | 60 | 1005.0 |
| 20260506010050 | 11 | 25 | 3.2 | 9.7 | 0.00 | 0.00 | 0.00 | 60 | 1004.7 |
| 20260506004547 | 11 | 40 | 1.6 | 11.3 | 0.00 | 0.00 | 0.00 | 60 | 1004.7 |
| 20260506003047 | 11 | 5 | 1.6 | 6.4 | 0.00 | 0.00 | 0.00 | 60 | 1004.6 |
| 20260506001546 | 11 | 96 | 6.4 | 14.5 | 0.00 | 0.00 | 0.00 | 59 | 1004.5 |
| 20260506000044 | 11 | 51 | 3.2 | 9.7 | 0.00 | 0.00 | 0.00 | 59 | 1004.3 |
| 20260505234544 | 11 | 39 | 1.6 | 8.0 | 0.00 | 0.00 | 0.00 | 59 | 1004.4 |
| 20260505233043 | 11 | 57 | 1.6 | 9.7 | 0.00 | 0.00 | 0.00 | 59 | 1004.8 |
| 20260505231543 | 11 | 41 | 3.2 | 12.9 | 0.00 | 0.00 | 0.00 | 60 | 1004.7 |
| 20260505230051 | 11 | 89 | 8.0 | 19.3 | 0.00 | 0.00 | 0.00 | 59 | 1004.6 |
| 20260505224538 | 11 | 48 | 8.0 | 19.3 | 0.00 | 0.00 | 0.00 | 59 | 1004.4 |
| 20260505223047 | 11 | 93 | 8.0 | 20.9 | 0.00 | 0.00 | 0.00 | 58 | 1004.4 |
| 20260505221535 | 12 | 32 | 3.2 | 17.7 | 0.00 | 0.00 | 0.00 | 55 | 1004.0 |
| 20260505220035 | 12 | 30 | 3.2 | 16.1 | 0.00 | 0.00 | 0.00 | 53 | 1003.8 |
| 20260505214530 | 12 | 329 | 4.8 | 17.7 | 0.00 | 0.00 | 0.00 | 52 | 1003.4 |
| 20260505213048 | 13 | 347 | 4.8 | 16.1 | 0.00 | 0.00 | 0.00 | 51 | 1003.5 |
| 20260505211530 | 13 | 56 | 4.8 | 17.7 | 0.00 | 0.00 | 0.00 | 50 | 1003.5 |
| 20260505210030 | 13 | 22 | 4.8 | 12.9 | 0.00 | 0.00 | 0.00 | 49 | 1003.5 |
| 20260505204528 | 13 | 50 | 6.4 | 19.3 | 0.00 | 0.00 | 0.00 | 50 | 1003.6 |
| 20260505203041 | 13 | 5 | 8.0 | 16.1 | 0.00 | 0.00 | 0.00 | 49 | 1003.7 |
| 20260505201528 | 13 | 351 | 6.4 | 24.1 | 0.00 | 0.00 | 0.00 | 49 | 1003.8 |
| 20260505200034 | 13 | 339 | 9.7 | 17.7 | 0.00 | 0.00 | 0.00 | 49 | 1003.7 |
| 20260505194526 | 13 | 321 | 4.8 | 17.7 | 0.00 | 0.00 | 0.00 | 49 | 1003.8 |
| 20260505193025 | 13 | 347 | 3.2 | 14.5 | 0.00 | 0.00 | 0.00 | 50 | 1003.6 |
| 20260505191525 | 13 | 44 | 8.0 | 20.9 | 0.00 | 0.00 | 0.00 | 49 | 1003.5 |
| 20260505190024 | 13 | 42 | 6.4 | 11.3 | 0.00 | 0.00 | 0.00 | 48 | 1003.4 |
| 20260505184525 | 13 | 23 | 6.4 | 17.7 | 0.00 | 0.00 | 0.00 | 49 | 1003.4 |
| 20260505183022 | 13 | 9 | 14.5 | 22.5 | 0.00 | 0.00 | 0.00 | 50 | 1003.7 |
| 20260505181521 | 13 | 58 | 9.7 | 19.3 | 0.00 | 0.00 | 0.00 | 50 | 1003.5 |
| 20260505180019 | 13 | 86 | 4.8 | 16.1 | 0.00 | 0.00 | 0.00 | 50 | 1003.6 |
| 20260505174518 | 13 | 37 | 6.4 | 14.5 | 0.00 | 0.00 | 0.00 | 49 | 1003.5 |
| 20260505173035 | 13 | 40 | 4.8 | 24.1 | 0.00 | 0.00 | 0.00 | 51 | 1003.3 |
| 20260505171518 | 13 | 34 | 3.2 | 17.7 | 0.00 | 0.00 | 0.00 | 50 | 1003.4 |
| 20260505170022 | 13 | 54 | 4.8 | 17.7 | 0.00 | 0.00 | 0.00 | 50 | 1003.1 |
| 20260505164532 | 12 | 351 | 8.0 | 24.1 | 0.00 | 0.00 | 0.00 | 51 | 1002.9 |
| 20260505163014 | 12 | 27 | 6.4 | 17.7 | 0.00 | 0.00 | 0.00 | 52 | 1002.7 |
| 20260505161510 | 12 | 22 | 4.8 | 22.5 | 0.00 | 0.00 | 0.00 | 54 | 1002.5 |
| 20260505153006 | 12 | 327 | 12.9 | 33.8 | 0.00 | 0.00 | 0.00 | 55 | 1001.6 |
| 20260505151605 | 12 | 60 | 4.8 | 17.7 | 0.00 | 0.00 | 0.00 | 56 | 1001.4 |
| 20260505124537 | 12 | 30 | 9.7 | 22.5 | 0.00 | 0.00 | 0.00 | 51 | 998.8 |
| 20260505123029 | 13 | 355 | 12.9 | 32.2 | 0.00 | 0.00 | 0.00 | 51 | 998.3 |
| 20260505121530 | 13 | 317 | 6.4 | 25.7 | 0.00 | 0.00 | 0.00 | 52 | 998.1 |
| 20260505120024 | 13 | 360 | 14.5 | 32.2 | 0.00 | 0.00 | 0.00 | 50 | 997.5 |
| 20260505114532 | 13 | 336 | 12.9 | 35.4 | 0.00 | 0.00 | 0.00 | 51 | 997.2 |
| 20260505113017 | 14 | 330 | 17.7 | 33.8 | 0.00 | 0.00 | 0.00 | 51 | 997.1 |
| 20260505111513 | 15 | 42 | 6.4 | 27.4 | 0.00 | 0.00 | 0.00 | 53 | 997.0 |